Regional Weather Roundup
Issued by NWS

Home | Current Version | Previous Version | Text Only | Print | Product List | Glossary Off
Versions: 1 2 3 4 5 6 7 8 9 10 11 12 13 14 15 16 17 18 19 20 21 22 23 24 25 26 27 28 29 30 31 32 33 34 35 36 37 38 39 40 41 42 43 44 45 46 47 48 49 50

254
ASUS43 KIND 040409
RWRIN

WEATHER ROUNDUP FOR INDIANA
NATIONAL WEATHER SERVICE INDIANAPOLIS IN
1200 AM EDT WED MAY 04 2016

NOTE: "FAIR" INDICATES FEW OR NO CLOUDS BELOW 12,000 FEET WITH NO
SIGNIFICANT WEATHER AND/OR OBSTRUCTIONS TO VISIBILITY.

* - STATION DOES NOT REPORT WEATHER SUCH AS PRECIPITATION OR FOG.

+ - STATION NOT QUALITY CONTROLLED BY THE NATIONAL WEATHER SERVICE.
    USE DATA WITH CAUTION...ESPECIALLY DEWPOINT AND RELATIVE
    HUMIDITY OBSERVATIONS.

INZ001>003-010>013-019-020-040500-
NORTHWEST INDIANA

CITY           SKY/WX    TMP DP  RH WIND       PRES   REMARKS
GARY /AIRPORT/ CLOUDY    61  47  61 SW5       29.73F
KNOX *+        MOCLDY    54  34  47 SW8       29.75F
LA PORTE +     CLOUDY    57  44  60 SW7       29.74F
MICHIGAN CITY+ CLOUDY    55  41  58 S6        29.73F
MONTICELLO +   CLOUDY    54  41  62 SW8       29.77F
RENSSELAER +   CLOUDY    55  45  67 SW10      29.76F
VALPARAISO     CLOUDY    56  42  59 SW8       29.74F

$$

LMZ046-743>745-040500-
SOUTHERN LAKE MICHIGAN

STATION/POSITION TIME  TEMP    WIND        PRES    WAVE
                       AIR SEA DIR/SP/G            HT
                 (UTC) (F)     (DEG/KT/KT) (MB)    (FT)
BURNS HARBOR     0300   61     210/ 10/ 13 1008.1F
MICHIGAN CITY    0300   60     180/ 10/ 12   N/A

$$

INZ004-005-014>016-021>024-040500-
NORTH CENTRAL INDIANA

CITY           SKY/WX    TMP DP  RH WIND       PRES   REMARKS
GOSHEN         CLOUDY    56  43  61 S10       29.75F
LOGANSPORT +   CLOUDY    54  45  71 SW8       29.79F
PERU/GRISSOM   CLOUDY    54  46  76 SW9       29.77F
ROCHESTER +    CLOUDY    57  45  62 S6        29.77F
SOUTH BEND     CLOUDY    57  41  55 SW9       29.74F
WARSAW +       CLOUDY    54  43  66 S3        29.76F

$$

INZ006>009-017-018-025>027-040500-
NORTHEAST INDIANA

CITY           SKY/WX    TMP DP  RH WIND       PRES   REMARKS
ANGOLA *+      CLOUDY    54  45  71 SW6       29.76F
AUBURN +       MOCLDY    52  41  66 S5        29.78F
FORT WAYNE     CLOUDY    52  44  74 S9        29.79F
HUNTINGTON +   MOCLDY    52  43  72 S6        29.78F

$$

INZ028-029-035-036-043>045-051>053-040500-
WEST CENTRAL INDIANA

CITY           SKY/WX    TMP DP  RH WIND       PRES   REMARKS
CRAWFORDSVL +  CLOUDY    53  46  78 SW8       29.82F
GREENCASTLE +  CLOUDY    52  46  82 CALM      29.84F
LAFAYETTE      CLOUDY    53  44  71 SW5       29.79F
TERRE HAUTE    PTCLDY    54  45  71 SW7       29.85F

$$

INZ030>032-037>040-046>048-054>057-064-065-040500-
CENTRAL INDIANA

CITY           SKY/WX    TMP DP  RH WIND       PRES   REMARKS
CP ATTERBURY + CLOUDY    50  45  81 SW5       29.85F
FISHERS *+     CLOUDY    52  46  82 S5        29.83
FRANKFORT +      N/A     54  40  59 SW7       29.82F
GREENWOOD *+   CLOUDY    54  45  71 SW7       29.84F
INDIANAPOLIS   MOCLDY    54  42  64 SW9       29.82F
-EAGLE CREEK   CLOUDY    53  43  68 S6        29.82F
KOKOMO *+      CLOUDY    54  43  66 SW9       29.79F
MARION +       MOCLDY    50  44  79 S9        29.81F
SHELBYVILLE    CLOUDY    54  47  77 S8        29.83F
ZIONSVILLE +   CLOUDY    52  44  74 S6        29.83F

$$

INZ033-034-041-042-049-050-058-059-040500-
EAST CENTRAL INDIANA

CITY           SKY/WX    TMP DP  RH WIND       PRES   REMARKS
MUNCIE         MOCLDY    53  43  68 SW6       29.82F

$$

INZ060-061-067>069-081>083-085>088-040500-
SOUTHWEST INDIANA

CITY           SKY/WX    TMP DP  RH WIND       PRES   REMARKS
EVANSVILLE     PTCLDY    53  43  68 W5        29.91F
HUNTINGBURG *+ PTCLDY    52  43  71 W6        29.89F
WASHINGTON +   CLOUDY    57  47  71 W8        29.87F

$$

INZ062-063-066-070>080-084-089>092-040500-
SOUTH CENTRAL AND SOUTHEAST INDIANA

CITY           SKY/WX    TMP DP  RH WIND       PRES   REMARKS
BEDFORD +      MOCLDY    50  50 100 CALM      29.86F
BLOOMINGTON    CLOUDY    54  44  69 SW3       29.85F
MADISON *+     CLEAR     46  45  93 CALM      29.88F
NORTH VERNON + PTCLDY   N/A N/A N/A CALM      29.86F
SEYMOUR +      PTCLDY    52  48  87 CALM      29.86

$$





USA.gov is the U.S. government's official web portal to all federal, state and local government web resources and services.